Flag for U.S.A. Weather past 2 weeks in Fremont, California, U.S.A.

Now
68 °F

Clear.


Feels Like: 68 °F
Forecast: 59 / 90 °F
Wind: No wind

Location: Moffett Field

Current Time: Jul 29, 2015 at 3:33:25 AM

Latest Report: Jul 29, 2015 at 2:56 AM


Visibility: 10 mi

Pressure: 29.88 "Hg

Humidity: 61%

Dew point: 54 °F

Location of FremontLocation

Historic Weather in Fremont — Graph

°F

Fremont temperature yesterday

Maximum temperature yesterday: 90 °F (at 2:56 PM)
Minimum temperature yesterday: 60 °F (at 5:56 AM)
Average temperature yesterday: 75 °F

Past Weeks' High & Low Weather Summary

 TemperatureHumidityPressure
High90 °F (Jul 28, 2:56 PM)90% (Jul 25, 3:56 AM)30.14 "Hg (Jul 25, 3:56 AM)
Low56 °F (Jul 24, 4:56 AM)32% (Jul 28, 1:56 PM)29.79 "Hg (Jul 17, 5:56 PM)
Average69 °F67%29.95 "Hg
* Reported Jul 14 1:56 AM — Jul 29 1:56 AM, Fremont, Weather by CustomWeather, © 2015

Note: Actual official high and low records may vary slightly from our data, if they occured in-between our weather recording intervals... More about our weather records

Advertising

Fremont weather history for previous 24 hours

 ConditionsComfort  
Time TempWeatherWind HumidityBarometerVisibility
1:56 AM
Wed, Jul 29
70 °FClear.No wind59%29.88 "Hg10 mi
12:56 AM70 °FClear.No wind57%29.88 "Hg10 mi
11:56 PM
Tue, Jul 28
73 °FClear.No wind51%29.88 "Hg10 mi
10:56 PM74 °FClear.No wind52%29.89 "Hg10 mi
9:56 PM75 °FClear.No wind52%29.88 "Hg10 mi
8:56 PM76 °FSunny.6 mph48%29.86 "Hg10 mi
7:56 PM78 °FSunny.10 mph46%29.84 "Hg10 mi
6:56 PM81 °FSunny.13 mph45%29.83 "Hg10 mi
5:56 PM84 °FSunny.14 mph43%29.82 "Hg10 mi
4:56 PM87 °FSunny.12 mph37%29.83 "Hg10 mi
3:56 PM88 °FSunny.13 mph35%29.83 "Hg10 mi
2:56 PM90 °FSunny.10 mph32%29.85 "Hg10 mi
1:56 PM89 °FSunny.N/A32%29.86 "Hg10 mi
12:56 PM86 °FSunny.N/A42%29.88 "Hg10 mi
11:56 AM82 °FSunny.N/A48%29.89 "Hg10 mi
10:56 AM75 °FSunny.3 mph57%29.89 "Hg10 mi
9:56 AM74 °FSunny.No wind60%29.90 "Hg10 mi
8:56 AM71 °FSunny.No wind61%29.90 "Hg10 mi
7:56 AM67 °FSunny.No wind71%29.90 "Hg10 mi
6:56 AM62 °FClear.No wind78%29.90 "Hg10 mi
5:56 AM60 °FClear.No wind80%29.89 "Hg10 mi
4:56 AM61 °FClear.No wind78%29.89 "Hg10 mi
3:56 AM61 °FClear.No wind78%29.88 "Hg10 mi
Weather by CustomWeather, © 2015

See weather overviewHow to use our weather pages